| time (UTC) | temp F | wind direction | speed MPH | gust MPH | rain 1hr in | rain 24hr in | rain mn in | humidity % | barometer mb |
| 20260506144926 | 74 | 359 | 11.0 | 22.0 | 0.00 | 0.00 | 0.00 | 21 | 1010.7 |
| 20260506143419 | 71 | 0 | 13.0 | 24.0 | 0.00 | 0.00 | 0.00 | 21 | 1010.4 |
| 20260506141912 | 73 | 0 | 12.0 | 25.0 | 0.00 | 0.00 | 0.00 | 21 | 1010.5 |
| 20260506140405 | 71 | 1 | 14.0 | 22.0 | 0.00 | 0.00 | 0.00 | 21 | 1010.6 |
| 20260506134857 | 70 | 4 | 14.0 | 22.0 | 0.00 | 0.00 | 0.00 | 21 | 1010.3 |
| 20260506133350 | 72 | 344 | 13.0 | 21.0 | 0.00 | 0.00 | 0.00 | 21 | 1010.5 |
| 20260506131843 | 71 | 6 | 11.0 | 21.0 | 0.00 | 0.00 | 0.00 | 21 | 1010.6 |
| 20260506130336 | 72 | 349 | 11.0 | 22.0 | 0.00 | 0.00 | 0.00 | 21 | 1010.7 |
| 20260506124828 | 73 | 358 | 11.0 | 22.0 | 0.00 | 0.00 | 0.00 | 21 | 1010.6 |
| 20260506123321 | 73 | 345 | 10.0 | 22.0 | 0.00 | 0.00 | 0.00 | 21 | 1010.3 |
| 20260506121814 | 214 | 359 | 15.0 | 26.0 | 0.00 | 0.00 | 0.00 | 21 | 1011.5 |
| 20260506120306 | 73 | 2 | 12.0 | 22.0 | 0.00 | 0.00 | 0.00 | 21 | 1010.3 |
| 20260506114759 | 72 | 358 | 14.0 | 22.0 | 0.00 | 0.00 | 0.00 | 21 | 1010.2 |
| 20260506113252 | 72 | 1 | 12.0 | 22.0 | 0.00 | 0.00 | 0.00 | 21 | 1010.3 |
| 20260506111744 | 72 | 6 | 10.0 | 21.0 | 0.00 | 0.00 | 0.00 | 21 | 1010.3 |
| 20260506110237 | 71 | 14 | 11.0 | 22.0 | 0.00 | 0.00 | 0.00 | 21 | 1010.2 |
| 20260506104730 | 69 | 13 | 11.0 | 24.0 | 0.00 | 0.00 | 0.00 | 21 | 1010.3 |
| 20260506103222 | 71 | 7 | 11.0 | 22.0 | 0.00 | 0.00 | 0.00 | 21 | 1010.3 |
| 20260506101714 | 69 | 354 | 12.0 | 24.0 | 0.00 | 0.00 | 0.00 | 21 | 1010.1 |
| 20260506100207 | 68 | 17 | 12.0 | 22.0 | 0.00 | 0.00 | 0.00 | 21 | 1010.0 |
| 20260506094700 | 68 | 5 | 15.0 | 22.0 | 0.00 | 0.00 | 0.00 | 21 | 1009.9 |
| 20260506093152 | 67 | 0 | 12.0 | 22.0 | 0.00 | 0.00 | 0.00 | 21 | 1009.9 |
| 20260506084631 | 68 | 22 | 10.0 | 22.0 | 0.00 | 0.00 | 0.00 | 21 | 1009.9 |
| 20260506083123 | 69 | 16 | 11.0 | 22.0 | 0.00 | 0.00 | 0.00 | 21 | 1009.8 |
| 20260506081616 | 68 | 1 | 12.0 | 22.0 | 0.00 | 0.00 | 0.00 | 21 | 1009.6 |
| 20260506073054 | 68 | 19 | 10.0 | 22.0 | 0.00 | 0.00 | 0.00 | 21 | 1009.4 |
| 20260506071547 | 69 | 2 | 11.0 | 22.0 | 0.00 | 0.00 | 0.00 | 21 | 1009.3 |
| 20260506061518 | 68 | 359 | 13.0 | 20.0 | 0.00 | 0.00 | 0.00 | 21 | 1009.2 |
| 20260506044315 | 63 | 1 | 13.0 | 22.0 | 0.00 | 0.00 | 0.00 | 21 | 1008.8 |
| 20260506042722 | 66 | 7 | 9.0 | 26.0 | 0.00 | 0.00 | 0.00 | 21 | 1009.2 |
| 20260506041136 | 64 | 8 | 14.0 | 23.0 | 0.00 | 0.00 | 0.00 | 21 | 1009.2 |
| 20260506035544 | 64 | 7 | 15.0 | 25.0 | 0.00 | 0.00 | 0.00 | 21 | 1009.0 |
| 20260506033951 | 65 | 16 | 13.0 | 23.0 | 0.00 | 0.00 | 0.00 | 21 | 1009.2 |
| 20260506030816 | 66 | 0 | 13.0 | 22.0 | 0.00 | 0.00 | 0.00 | 21 | 1009.2 |
| 20260506025235 | 65 | 7 | 14.0 | 25.0 | 0.00 | 0.00 | 0.00 | 21 | 1009.2 |
| 20260506023654 | 65 | 0 | 13.0 | 23.0 | 0.00 | 0.00 | 0.00 | 21 | 1009.4 |
| 20260506022109 | 65 | 13 | 13.0 | 22.0 | 0.00 | 0.00 | 0.00 | 21 | 1009.3 |
| 20260506020534 | 65 | 12 | 15.0 | 23.0 | 0.00 | 0.00 | 0.00 | 21 | 1009.5 |
| 20260506014933 | 66 | 7 | 11.0 | 25.0 | 0.00 | 0.00 | 0.00 | 21 | 1009.5 |
| 20260506013450 | 66 | 13 | 10.0 | 27.0 | 0.00 | 0.00 | 0.00 | 21 | 1009.6 |
| 20260506013357 | 66 | 13 | 10.0 | 27.0 | 0.00 | 0.00 | 0.00 | 21 | 1009.6 |
| 20260506011801 | 65 | 8 | 15.0 | 26.0 | 0.00 | 0.00 | 0.00 | 21 | 1009.4 |
| 20260506010219 | 66 | 8 | 11.0 | 29.0 | 0.00 | 0.00 | 0.00 | 21 | 1009.7 |
| 20260506004642 | 65 | 10 | 14.0 | 24.0 | 0.00 | 0.00 | 0.00 | 21 | 1009.6 |
| 20260506003103 | 65 | 10 | 15.0 | 24.0 | 0.00 | 0.00 | 0.00 | 21 | 1009.8 |
| 20260506001526 | 64 | 12 | 13.0 | 23.0 | 0.00 | 0.00 | 0.00 | 21 | 1010.0 |
| 20260505235952 | 65 | 19 | 11.0 | 24.0 | 0.00 | 0.00 | 0.00 | 21 | 1009.9 |
| 20260505232847 | 66 | 19 | 13.0 | 22.0 | 0.00 | 0.00 | 0.00 | 21 | 1009.8 |
| 20260505231317 | 66 | 15 | 11.0 | 26.0 | 0.00 | 0.00 | 0.00 | 21 | 1009.9 |
| 20260505225758 | 65 | 21 | 14.0 | 26.0 | 0.00 | 0.00 | 0.00 | 21 | 1009.9 |
| 20260505224217 | 66 | 15 | 13.0 | 25.0 | 0.00 | 0.00 | 0.00 | 21 | 1010.0 |
| 20260505222638 | 66 | 17 | 15.0 | 26.0 | 0.00 | 0.00 | 0.00 | 21 | 1010.1 |
| 20260505221059 | 66 | 16 | 12.0 | 29.0 | 0.00 | 0.00 | 0.00 | 21 | 1010.2 |
| 20260505215531 | 65 | 15 | 15.0 | 29.0 | 0.00 | 0.00 | 0.00 | 21 | 1010.0 |
| 20260505214009 | 66 | 24 | 13.0 | 28.0 | 0.00 | 0.00 | 0.00 | 21 | 1010.0 |
| 20260505212444 | 67 | 10 | 12.0 | 28.0 | 0.00 | 0.00 | 0.00 | 21 | 1010.2 |
| 20260505210924 | 67 | 18 | 11.0 | 22.0 | 0.00 | 0.00 | 0.00 | 21 | 1010.1 |
| 20260505205407 | 66 | 21 | 16.0 | 30.0 | 0.00 | 0.00 | 0.00 | 21 | 1010.2 |
| 20260505203851 | 65 | 14 | 16.0 | 29.0 | 0.00 | 0.00 | 0.00 | 21 | 1010.0 |
| 20260505202338 | 66 | 16 | 19.0 | 32.0 | 0.00 | 0.00 | 0.00 | 21 | 1010.0 |
| 20260505200822 | 67 | 6 | 18.0 | 31.0 | 0.00 | 0.00 | 0.00 | 21 | 1010.0 |
| 20260505195309 | 66 | 16 | 15.0 | 30.0 | 0.00 | 0.00 | 0.00 | 21 | 1009.6 |
| 20260505193746 | 65 | 19 | 18.0 | 30.0 | 0.00 | 0.00 | 0.00 | 21 | 1009.6 |
| 20260505192231 | 67 | 20 | 16.0 | 33.0 | 0.00 | 0.00 | 0.00 | 21 | 1009.7 |
| 20260505190717 | 66 | 17 | 17.0 | 30.0 | 0.00 | 0.00 | 0.00 | 21 | 1009.5 |
| 20260505185205 | 66 | 10 | 17.0 | 30.0 | 0.00 | 0.00 | 0.00 | 21 | 1009.5 |
| 20260505183656 | 67 | 19 | 16.0 | 28.0 | 0.00 | 0.00 | 0.00 | 21 | 1009.2 |
| 20260505182147 | 68 | 3 | 15.0 | 32.0 | 0.00 | 0.00 | 0.00 | 21 | 1009.5 |
| 20260505180638 | 67 | 17 | 18.0 | 35.0 | 0.00 | 0.00 | 0.00 | 21 | 1009.3 |
| 20260505175129 | 67 | 23 | 17.0 | 31.0 | 0.00 | 0.00 | 0.00 | 21 | 1009.5 |
| 20260505173620 | 66 | 20 | 18.0 | 31.0 | 0.00 | 0.00 | 0.00 | 21 | 1009.2 |
| 20260505172113 | 66 | 19 | 15.0 | 33.0 | 0.00 | 0.00 | 0.00 | 21 | 1009.3 |
| 20260505170606 | 66 | 8 | 14.0 | 31.0 | 0.00 | 0.00 | 0.00 | 21 | 1009.3 |
| 20260505165059 | 68 | 16 | 16.0 | 31.0 | 0.00 | 0.00 | 0.00 | 21 | 1009.6 |
| 20260505163551 | 67 | 11 | 17.0 | 25.0 | 0.00 | 0.00 | 0.00 | 21 | 1009.5 |
| 20260505162044 | 69 | 10 | 15.0 | 26.0 | 0.00 | 0.00 | 0.00 | 21 | 1009.4 |
| 20260505160537 | 69 | 7 | 18.0 | 26.0 | 0.00 | 0.00 | 0.00 | 21 | 1009.5 |
| 20260505152014 | 68 | 6 | 14.0 | 28.0 | 0.00 | 0.00 | 0.00 | 21 | 1009.8 |
| 20260505150506 | 69 | 14 | 16.0 | 27.0 | 0.00 | 0.00 | 0.00 | 21 | 1009.5 |